User: anonymous   Login
Location: Deuil
(48.9767°N, 2.3272°E)
Time: 03:03:46
(UTC+00:00)
Language:

Okean-O - Orbit

View from above orbital plane
View from above orbital plane
View from above satellite
View from above satellite

Ground track
Ground track

The orbit data is extracted from the following two-line orbital elements,

1 25860U 99039A   22019.53790109  .00000307  00000-0  51367-4 0  9995
2 25860  98.1598  57.9630 0001515 111.7000 248.4371 14.76813151211274
Epoch (UTC): 19 January 2022 12:54:34
Eccentricity: 0.0001515
inclination: 98.1598°
perigee height: 638 km
apogee height: 640 km
right ascension of ascending node: 57.9630°
argument of perigee: 111.7000°
revolutions per day: 14.76813151
mean anomaly at epoch: 248.4371°
orbit number at epoch: 21127

The dashed part of the orbit path shows where the satellite is in the earth's shadow,  

DLR